FENGYUN 1C DEB

Satellite information

Favourite Embed

Satellite Type and Status

DEBRISIN ORBIT

Key statistics

Satellite FENGYUN 1C DEB at a glance.

Uptime

9613

Days in orbit

Revolutions

≈ 13.5

Per day

Orbit

SSO

Sun Synchronous Orbit

Inclination

100.0

Latest

Satellite identification and parameters

Extended collection of information and parameters for FENGYUN 1C DEB.

Object identification

Identified? True

Debris? True

Object name: FENGYUN 1C DEB

International designator: 1999-025DRA

Object number (NORAD): 35242

Object ID (CCSDS): 35242

Country: PEOPLES REPUBLIC OF CHINA (PRC)

Current information (Y/N): Y

RCS size: SMALL

Orbital parameters

Period: 106.515 minutes

Inclination: 99.9725 deg

SMA: 7443.309 km

Apoapsis: 1290.532 km

Periapsis: 839.816 km

RAAN: 297.8486 deg

Eccentricy: 0.03027659

Argument of periapsis: 79.3479 deg

Mean anomaly: 95.8861 deg

Mean motion: 13.51928483 rev/day

Mean motion (dot): 0.00001861 rev/day2

B* drag term: 0.0021771939 1/REarth

Two-line elements (TLE)

Creation date: Sept. 3, 2025, 2:21 a.m.

Reference frame: TEME

Reference center: EARTH

Epoch: Sept. 2, 2025, 9:34 p.m. UTC

TLE line 0: 0 FENGYUN 1C DEB

TLE line 1: 1 35242U 99025DRA 25245.89897262 .00001861 00000-0 21772-2 0 9997

TLE line 2: 2 35242 99.9725 297.8486 0302766 79.3479 95.8861 13.51928483567645

Live tracking on map

Real-time ground track for satellite FENGYUN 1C DEB.

In-orbit conjunctions

A list of the most updated potential collisions computed for object FENGYUN 1C DEB.

Target Orbit TCA Probability of collision Miss distance Type
CZ-6A DEB SSO 2024-11-13 22:34:25 0.0008261867 140.0 (m) DEBRIS
COSMOS 252 DEB LEO 2024-10-23 04:24:07 0.0001324165 179.0 (m) DEBRIS
DELTA 1 R/B(1) MEO 2024-07-11 12:23:33 0.0004407212 187.0 (m) ROCKET BODY

Associated space launch

Chinese polar orbiting meteorological satellite

FENGYUN 1C DEB was lifted into orbit during the mission ‘Long March 4B | Feng Yun 1C’, on board a Long March 4B space rocket.

The launch took place on May 10, 1999, 1:33 a.m. from Launch Complex 7.

For more information about the launch, click the button.

Launch to space Long March 4B | Feng Yun 1C
Long March 4B | Feng Yun 1C

Agency: N/A

Status: Launch Successful

Launch date: May 10, 1999, 1:33 a.m. UTC

Rocket: Long March 4B

Launch pad: Launch Complex 7

Location: Taiyuan Satellite Launch Center, People's Republic of China

...

Latest news about this satellite

There are no fresh news available about this satellite. Check back as we update our databases every day.


Newsletter sign-up

Weekly statistics, charts and insights to help you stay on top of the space industry.